Погода в Пялице

Погода в Пялице : погода сейчас, прогноз погоды и архив. Всё, что Вы хотите узнать о погоде в Пялице!

Хотите узнать прогноз погоды в Пялице? Тогда Вам сюда: Погода в Пялице

Поиск расширенной информации на нашем сайте:

Другие новости

Новости СМИ2

Главная страница сайта

Новости сайта

03.07.2017

Напоминаем, что на нашем специализированном сайте Метеоцентр.Азия вы можете получить высокодетализированные автоматические прогнозы погоды по пунктам России, СНГ и мира в авиационном формате (включающие направление и скорость ветра, видимость, явления погоды, количество и форму облачности, нижнюю и верхнюю границу облачности).

Рекомендуем: Мастера ушу - обои спорт.

Погода в Пялице - сегодня

Время (UTC), дата Ветер
(°,м/с) 
Видим.   Явления Облачность Т
(°С)
Тd
(°С)
f(%) Тe
(°С)
Pmin
(гПа)
dP
(гПа)
Po
(мм)
O2
(г/м3)
Тmin Tmax R s Состояние
почвы
06 10.12.17 140 (ЮВ) 4-6  20000 м    10/10 600 м 
[Sc]
-3.3 -4.2 93 -6  1012.9  759  310  -6    0.0  11  равномерный
сухой снег
100% 
09 10.12.17 170 (Ю) 4-5  20000 м    10/10 600 м 
[Sc]
-2.7 -3.6 94 -6  1013.4  0.5  759  309           
12 10.12.17 140 (ЮВ) 5-6  20000 м    10/10 600 м 
[Sc]
-2.6 -3.7 92 -6  1012.8  -0.6  759  309           
15 10.12.17 120 (ЮВ) 5-7  20000 м  {ливн. осадки}  10/10 600 м кучево-дожд. 
[Cb cap]
-2.4 -3.3 94 -6  1012.8  759  309      0.0     
18 10.12.17 120 (ЮВ) 6-8  20000 м  {ливн. осадки}  10/10 600 м кучево-дожд. 
[Cb cap]
-2.2 -3.3 92 -6  1011.9  -0.9  758  308    -2.2  0.0     
21 10.12.17 150 (ЮВ) 6-8  н/о    н/о 
-2.2 -3.2 93 -6  1011.2  -0.6  758  308           
00 11.12.17 120 (ЮВ) 8-10{10}  н/о    н/о 
-2.4 -3.5 92 -7  1010.2  -1  757  308           
03 11.12.17 170 (Ю) 7-10{11}  20000 м    10/10 600 м 
[Sc]
-2 -3.3 91 -6  1009.7  -0.5  756  307  -2.5         
06 11.12.17 180 (Ю) 11-13{13}  20000 м  в посл. час ливневой снег  10/10 600 м кучево-дожд. 
[Cb cap]
-1.2 -2.3 92 -7  1009.4  -0.3  756  306  -2.5    0.0  11  равномерный
сухой снег
100% 
09 11.12.17 160 (Ю) 7-9{14}  10 км  слаб. ливневой снег  10/10 600 м кучево-дожд. 
[Cb cap]
-1.4 -2.3 94 -6  1009.9  0.5  757  307           
12 11.12.17 160 (Ю) 6-7  4000 м  слаб. ливневой снег  10/10 300 м кучево-дожд. 
[Cb cap]
-1.6 -1.9 98 -5  1009.2  -0.7  756  307           
15 11.12.17 170 (Ю) 6-8  4000 м  слаб. ливневой снег  10/10 300 м кучево-дожд. 
[Cb cap]
-1.3 -1.5 99 -5  1009.1  -0.1  756  306         
18 11.12.17 180 (Ю) 9-11{12}  4000 м  слаб. ливневой снег  10/10 300 м кучево-дожд. 
[Cb cap]
-0.3 -0.4 99 -5  1009.7  0.6  756  305    -0.3     
21 11.12.17 190 (Ю) 7-8{11}  н/о    н/о 
+0 +0 100 -4  1011  1.3  757  305           
00 12.12.17 180 (Ю) 9-11{11}  н/о    н/о 
-0.1 -0.2 99 -5  1011.4  0.4  758  305           
03 12.12.17 170 (Ю) 7-9{12}  4000 м  слаб. ливневой снег  10/10 300 м кучево-дожд. 
[Cb cap]
-0.5 -0.6 99 -4  1011.3  0.1  758  306  -1.3       
06 12.12.17 170 (Ю) 8-11{13}  4000 м  слаб. ливневой снег  10/10 300 м кучево-дожд. 
[Cb cap]
-0.6 -1.1 96 -5  1011  -0.3  757  306  -0.8    17  равномерный
мокрый или
старый снег
100% 
09 12.12.17 180 (Ю) 14-17{17}  20000 м  в посл. час ливневой снег  10/10 300 м кучево-дожд. 
[Cb cap]
-0.2 -0.5 98 -6  1010.2  -0.8  757  305           
12 12.12.17 180 (Ю) 15-18{18}  20000 м  {ливн. осадки}  10/10 600 м кучево-дожд. 
[Cb cap]
-0.5 -1.1 96 -7  1009.8  -0.4  757  306           
15 12.12.17 180 (Ю) 12-16{18}  20000 м    10/10 600 м кучево-дожд. 
[Cb cap]
-1.1 -1.7 96 -7  1009.5  -0.4  756  306      0.9     
18 12.12.17 170 (Ю) 11-14{17}  20000 м    10/10 600 м кучево-дожд. 
[Cb cap]
-1.2 -2.3 92 -7  1007.8  -1.7  755  306    -0.2  0.5     
21 12.12.17 160 (Ю) 11-16{16}  н/о    н/о 
-1.5 -3.1 89 -7  1004.2  -3.6  752  305           
00 13.12.17 160 (Ю) 12-16{17}  н/о    н/о 
-1.4 -3.2 88 -7  999.5  -4.7  749  304           
03 13.12.17 160 (Ю) 14-19{20}  10 км  слаб. ливневой снег  10/10 600 м кучево-дожд. 
[Cb cap]
-1.4 -1.8 97 -8  994.1  -5.4  745  302  -1.6    0.0     
06 13.12.17 160 (Ю) 13-18{20}  2000 м  слаб. ливневой снег  10/10 600 м кучево-дожд. 
[Cb cap]
-0.9 -1.1 99 -7  990.1  -3.9  742  300  -1.6    24  равномерный
сухой снег
100% 
Время (UTC), дата Ветер
(°,м/с) 
Видим.   Явления Облачность Т
(°С)
Тd
(°С)
f(%) Тe
(°С)
Pmin
(гПа)
dP
(гПа)
Po
(мм)
O2
(г/м3)
Тmin Tmax R s Состояние
почвы

Для получения пояснительной информации подведите курсор к названию столбца.

ПОГОДА в Пялице - архив

Всё, что Вы хотите узнать о погоде в Пялице - удобно и подробно!

Выберите нужную дату (начиная с 1 января 2015* года) и нажмите кнопку "Найти".
Будут отображены архивные сводки погоды по пункту Пялица, начиная с указанной даты.


Отображать данные в формате CSV (для использования в таблицах Excel)


Внимание! Наш архив погоды предназначен исключительно для личного некоммерческого использования в познавательных целях. Если Вам необходимы официальные справки о состоянии погоды (для производственных, юридических, коммерческих и т.п. целей), обращайтесь в органы Росгидромета.

*Примечание: данная дата относится к архиву по метеостанциям СССР (Россия, СНГ, Балтия).
Архив по метеостанциям Зарубежной Европы и Азии (кроме Китая) хранится 10 дней, по другим регионам земного шара (Китай, Африка, Америка, Австралия, Океания) - 1 день.

Пялица - район местоположения метеостанции


Название, широта, долгота, высота метеостанции:
Пялица 66.2°ш. 39.5°д. 9 м над ур. моря [Российская Федерация]

Дополнительная информация

В oтличие oт бoльшинства пoгoдных сайтoв мы публикуем пoдрoбную метеoинфoрмацию в детальнoм прoфессиoнальнoм фoрмате.

Характеристики температуры и влажнoсти вoздуха измеряются на высoте 2 м в тени вдали oт зданий и деревьев.
Скoрoсть ветра измеряется на высoте 10 м (на урoвне рoста челoвека скoрoсть ветра ниже в 1.5-2 раза). Если метеoстанция нахoдится в гoрoде или в лесу, тo скoрoсть ветра занижена на 2-4 м/с пo сравнению с oткрытым местoм. Скoрoсть ветра над акватoриями крупных рек и oзёр, а также на вершинах хoлмoв на 2-5 м/с выше, чем в oбычных услoвиях.
Атмoсфернoе давление в разных тoчках местнoсти мoжет значительнo oтличаться oт давления на метеoстанции, в зависимoсти oт услoвий рельефа (при пoдъёме на 10 м давление пoнижается примернo на 1 мм рт.ст.).